Вернуться в каталог

STARLINK-2417

АктивенСвязьVLEO
NORAD 48096·PAYLOAD·🇺🇸 United States

Запущен Apr 7, 2021 с Cape Canaveral Space Force Station

Loading…

Ближайшие Пролёты (ближайшие 24 часа)

TLE

СвежийSource: CelesTrak SupGP

Эпоха: Sep 15, 2026, 02:54 UTC

1 48096C 21027E   26258.12131944  .00012297  00000+0  39551-3 0  2581
2 48096  53.1591   4.0367 0001067  94.2161 253.1151 15.31691569    15

Отслеживайте STARLINK-2417 в реальном времени с AllMySat

Download on the App Store